Weather in Chertanovka

Russia / Ulyanovsk Oblast     53°49′28″N   47°49′02″E
temp.,
°C
wind,
m/s
gust,
m/s
humid.,
%
clouds,
%
prec.,
mm/h
press.,
hPa
HPBL,
m
16 april, fri
fri1601:00+12sse2260100 0.0 101810
04:00+11e1161100 0.0 101810
07:00+10ne3368100 0.0 101937
10:00+14ne4561100 0.0 1020311
13:00+17ne5552100 0.0 1020750
16:00+18ne5547100 0.0 10201136
19:00+13nne587331 0.0 1021255
22:00+10ne5118454 0.0 1022290
17 april, sat
sat1701:00+8ne510885 0.0 1022241
04:00+6ne48936 0.0 1023186
07:00+6ne499518 0.0 1024258
10:00+11ene68705 0.0 1023537
13:00+14ene77566 0.0 1023915
16:00+15ene67485 0.0 10221189
19:00+13ene69525 0.0 1022460
22:00+9ene511564 0.0 1023333
18 april, sun
sun1801:00+7ene511600 0.0 1022302
04:00+5ene396582 0.0 1023240
07:00+5ne3865100 0.0 1023297
10:00+6ne3869100 0.3 1023380
13:00+7ne3770100 1.1 1023413
16:00+6n2584100 5.8 1023206
19:00+7nnw3578100 0.3 102295
22:00+7ne4107099 0.3 1023236
19 april, mon
mon1901:00+6ene7137599 0.0 1024476
04:00+5ene71273100 0.0 1024418
07:00+3ene61262100 0.0 1026486
10:00+5ene795629 0.0 1026770
13:00+8ene895731 0.0 10261274
16:00+8e8105499 0.0 10261567
19:00+6e71064100 0.0 10271163
22:00+6e71261100 0.0 10281137
20 april, tue
tue2001:00+3e7136117 0.0 1028545
04:00+2e714645 0.0 1029633
07:00+1e714601 0.0 1030723
10:00+4ese101347100 0.0 1029959
13:00+6ese101238100 0.0 10301241
16:00+8ese91436100 0.0 10271362
19:00+6se91641100 0.0 10271148
22:00+4se91649100 0.0 1028920